| time (UTC) | temp F | wind direction | speed knots | gust knots | rain 1hr in | rain 24hr in | rain mn in | humidity % | barometer mb |
| 20260504050018 | 46 | 191 | 1.7 | 4.3 | 0.00 | 0.00 | 0.00 | 58 | 1006.4 |
| 20260504045018 | 47 | 207 | 1.7 | 3.5 | 0.00 | 0.00 | 0.00 | 57 | 1006.5 |
| 20260504044019 | 46 | 200 | 0.9 | 2.6 | 0.00 | 0.00 | 0.00 | 56 | 1006.5 |
| 20260504043725 | 47 | 0.0 | 0.0 | 0.00 | 0.00 | 0.00 | 55 | 1006.7 | |
| 20260504040019 | 47 | 206 | 2.6 | 5.2 | 0.00 | 0.00 | 0.00 | 52 | 1006.6 |
| 20260504035016 | 47 | 204 | 2.6 | 4.3 | 0.00 | 0.00 | 0.00 | 52 | 1006.7 |
| 20260504034020 | 48 | 203 | 1.7 | 4.3 | 0.00 | 0.00 | 0.00 | 51 | 1006.7 |
| 20260504033021 | 48 | 201 | 1.7 | 5.2 | 0.00 | 0.00 | 0.00 | 51 | 1006.7 |
| 20260504032037 | 48 | 207 | 2.6 | 7.0 | 0.00 | 0.00 | 0.00 | 50 | 1006.8 |
| 20260504031038 | 49 | 212 | 1.7 | 4.3 | 0.00 | 0.00 | 0.00 | 50 | 1006.8 |
| 20260504030018 | 49 | 215 | 1.7 | 4.3 | 0.00 | 0.00 | 0.00 | 50 | 1006.9 |
| 20260504025100 | 49 | 206 | 2.6 | 3.5 | 0.00 | 0.00 | 0.00 | 50 | 1007.0 |
| 20260504024018 | 50 | 218 | 1.7 | 5.2 | 0.00 | 0.00 | 0.00 | 50 | 1007.0 |
| 20260504023039 | 50 | 225 | 2.6 | 7.0 | 0.00 | 0.00 | 0.00 | 49 | 1007.1 |
| 20260504022019 | 50 | 220 | 1.7 | 4.3 | 0.00 | 0.00 | 0.00 | 49 | 1007.2 |
| 20260504021018 | 50 | 212 | 1.7 | 5.2 | 0.00 | 0.00 | 0.00 | 50 | 1007.2 |
| 20260504020018 | 50 | 217 | 1.7 | 4.3 | 0.00 | 0.00 | 0.00 | 49 | 1007.3 |
| 20260504015018 | 51 | 217 | 1.7 | 2.6 | 0.00 | 0.00 | 0.00 | 48 | 1007.4 |
| 20260504014020 | 51 | 214 | 1.7 | 4.3 | 0.00 | 0.00 | 0.00 | 47 | 1007.4 |
| 20260504013019 | 51 | 212 | 1.7 | 5.2 | 0.00 | 0.00 | 0.00 | 45 | 1007.4 |
| 20260504012019 | 51 | 223 | 1.7 | 4.3 | 0.00 | 0.00 | 0.00 | 45 | 1007.4 |
| 20260504011019 | 51 | 235 | 2.6 | 8.7 | 0.00 | 0.00 | 0.00 | 45 | 1007.4 |
| 20260504010036 | 52 | 207 | 1.7 | 4.3 | 0.00 | 0.00 | 0.00 | 44 | 1007.3 |
| 20260504005020 | 52 | 224 | 2.6 | 6.1 | 0.00 | 0.00 | 0.00 | 43 | 1007.2 |
| 20260504004020 | 52 | 212 | 1.7 | 5.2 | 0.00 | 0.00 | 0.00 | 42 | 1007.2 |
| 20260504003038 | 52 | 215 | 2.6 | 5.2 | 0.00 | 0.00 | 0.00 | 41 | 1007.1 |
| 20260504002020 | 52 | 205 | 2.6 | 6.1 | 0.00 | 0.00 | 0.00 | 41 | 1007.1 |
| 20260504001017 | 52 | 240 | 0.9 | 2.6 | 0.00 | 0.00 | 0.00 | 38 | 1007.0 |
| 20260504000017 | 53 | 244 | 1.7 | 4.3 | 0.00 | 0.00 | 0.00 | 38 | 1006.9 |
| 20260503235020 | 53 | 277 | 1.7 | 5.2 | 0.00 | 0.00 | 0.00 | 36 | 1006.9 |
| 20260503234038 | 53 | 267 | 1.7 | 5.2 | 0.00 | 0.00 | 0.00 | 36 | 1006.8 |
| 20260503233018 | 54 | 286 | 3.5 | 7.0 | 0.00 | 0.00 | 0.00 | 35 | 1006.8 |
| 20260503232023 | 54 | 300 | 1.7 | 5.2 | 0.00 | 0.00 | 0.00 | 35 | 1006.8 |
| 20260503231039 | 54 | 299 | 3.5 | 7.8 | 0.00 | 0.00 | 0.00 | 35 | 1006.8 |
| 20260503230038 | 54 | 245 | 0.9 | 3.5 | 0.00 | 0.00 | 0.00 | 35 | 1006.7 |
| 20260503225019 | 54 | 308 | 2.6 | 5.2 | 0.00 | 0.00 | 0.00 | 34 | 1006.8 |
| 20260503224018 | 54 | 313 | 3.5 | 7.0 | 0.00 | 0.00 | 0.00 | 34 | 1006.8 |
| 20260503223019 | 54 | 310 | 4.3 | 7.8 | 0.00 | 0.00 | 0.00 | 34 | 1006.8 |
| 20260503222019 | 54 | 298 | 3.5 | 7.0 | 0.00 | 0.00 | 0.00 | 35 | 1006.9 |
| 20260503221019 | 54 | 307 | 2.6 | 7.0 | 0.00 | 0.00 | 0.00 | 36 | 1006.8 |
| 20260503220020 | 54 | 314 | 3.5 | 7.8 | 0.00 | 0.00 | 0.00 | 36 | 1006.8 |
| 20260503215039 | 55 | 277 | 3.5 | 6.1 | 0.00 | 0.00 | 0.00 | 36 | 1006.8 |
| 20260503214017 | 54 | 292 | 2.6 | 7.0 | 0.00 | 0.00 | 0.00 | 37 | 1006.9 |
| 20260503213021 | 54 | 288 | 3.5 | 7.8 | 0.00 | 0.00 | 0.00 | 37 | 1007.0 |
| 20260503212041 | 54 | 300 | 2.6 | 8.7 | 0.00 | 0.00 | 0.00 | 37 | 1007.0 |
| 20260503211017 | 54 | 307 | 3.5 | 7.8 | 0.00 | 0.00 | 0.00 | 37 | 1006.9 |
| 20260503210021 | 54 | 313 | 4.3 | 7.8 | 0.00 | 0.00 | 0.00 | 37 | 1006.9 |
| 20260503205018 | 54 | 272 | 3.5 | 7.8 | 0.00 | 0.00 | 0.00 | 37 | 1007.0 |
| 20260503204021 | 54 | 279 | 3.5 | 7.8 | 0.00 | 0.00 | 0.00 | 37 | 1007.0 |
| 20260503203019 | 53 | 295 | 2.6 | 6.1 | 0.00 | 0.00 | 0.00 | 40 | 1007.1 |
| 20260503202019 | 53 | 302 | 3.5 | 10.4 | 0.00 | 0.00 | 0.00 | 38 | 1007.2 |
| 20260503201021 | 53 | 286 | 2.6 | 7.8 | 0.00 | 0.00 | 0.00 | 40 | 1007.3 |
| 20260503200022 | 53 | 314 | 4.3 | 11.3 | 0.00 | 0.00 | 0.00 | 39 | 1007.4 |
| 20260503195018 | 53 | 305 | 3.5 | 8.7 | 0.00 | 0.00 | 0.00 | 39 | 1007.4 |
| 20260503194018 | 53 | 299 | 1.7 | 7.8 | 0.00 | 0.00 | 0.00 | 39 | 1007.5 |
| 20260503193018 | 52 | 288 | 3.5 | 7.8 | 0.00 | 0.00 | 0.00 | 40 | 1007.7 |
| 20260503192020 | 52 | 294 | 3.5 | 6.1 | 0.00 | 0.00 | 0.00 | 41 | 1007.9 |
| 20260503191021 | 51 | 333 | 5.2 | 8.7 | 0.00 | 0.00 | 0.00 | 41 | 1008.1 |
| 20260503190019 | 51 | 327 | 4.3 | 8.7 | 0.00 | 0.00 | 0.00 | 42 | 1008.1 |
| 20260503185019 | 51 | 331 | 4.3 | 8.7 | 0.00 | 0.00 | 0.00 | 43 | 1008.2 |
| 20260503184020 | 52 | 317 | 4.3 | 7.8 | 0.00 | 0.00 | 0.00 | 43 | 1008.3 |
| 20260503183020 | 52 | 248 | 2.6 | 7.8 | 0.00 | 0.00 | 0.00 | 44 | 1008.5 |
| 20260503182041 | 50 | 326 | 4.3 | 8.7 | 0.00 | 0.00 | 0.00 | 45 | 1008.7 |
| 20260503181017 | 49 | 322 | 3.5 | 7.8 | 0.00 | 0.00 | 0.00 | 48 | 1008.8 |
| 20260503180021 | 49 | 323 | 3.5 | 6.1 | 0.00 | 0.00 | 0.00 | 49 | 1008.9 |
| 20260503175017 | 49 | 282 | 3.5 | 6.1 | 0.00 | 0.00 | 0.00 | 48 | 1008.9 |
| 20260503174020 | 50 | 305 | 2.6 | 7.8 | 0.00 | 0.00 | 0.00 | 49 | 1008.9 |
| 20260503173018 | 50 | 305 | 3.5 | 8.7 | 0.00 | 0.00 | 0.00 | 48 | 1009.0 |
| 20260503172018 | 50 | 286 | 3.5 | 9.6 | 0.00 | 0.00 | 0.00 | 47 | 1009.2 |
| 20260503171019 | 49 | 281 | 2.6 | 7.8 | 0.00 | 0.00 | 0.00 | 50 | 1009.3 |
| 20260503131039 | 44 | 20 | 0.9 | 2.6 | 0.00 | 0.00 | 0.00 | 64 | 1011.8 |
| 20260503081031 | 40 | 337 | 1.7 | 1.7 | 0.00 | 0.00 | 0.00 | 86 | 1011.4 |